This demonstration page uses our WeatherBlox Daily Observations layout. Learn more.

Left ArrowRight Arrow

39.92423, -83.80882

Hourly Observations for April 25, 2022

Temp ( °F °C ) Dew Point ( °F °C ) Humidity (%) Winds ( mph kmh ) Pressure ( in mb ) Visibility ( mi km ) Precip ( " mm )
12:56 am 00:56 Partly Cloudy 68 20 55 12.8 63 63 SSW 9 15 29.96 1015 10 16 0.00 0.00
1:56 am 01:56 Mostly Clear 67 19.4 55 12.8 66 66 SSW 8 13 29.96 1015 10 16 0.00 0.00
2:56 am 02:56 Mostly Cloudy 67 19.4 55 12.8 66 66 SSW 9 15 29.97 1015 10 16 0.00 0.00
3:56 am 03:56 Cloudy 66 18.9 57 13.9 73 73 WNW 8 13 29.98 1015 10 16 0.00 0.00
4:56 am 04:56 Mostly Cloudy 61 16.1 61 16.1 100 100 SE 7 11 29.96 1015 10 16 0.00 0.00
5:56 am 05:56 Clear 60 15.6 60 15.6 100 100 Calm 29.96 1015 10 16 0.00 0.00
6:56 am 06:56 Cloudy 57 14 N/A N/A SSE 3 6 29.97 1015 10 16 0.00 0.00
7:56 am 07:56 Mostly Cloudy 65 18.3 59 15 81 81 S 3 6 29.98 1015 10 16 0.00 0.00
8:56 am 08:56 Cloudy 69 20.6 58 14.4 68 68 SSW 10 17 29.98 1015 10 16 0.00 0.00
9:56 am 09:56 Cloudy 70 21.1 59 15 68 68 SSW 9 15 29.98 1015 10 16 0.00 0.00
10:56 am 10:56 Mostly Cloudy 74 23.3 61 16.1 64 64 SSW 12 19 29.97 1015 10 16 0.00 0.00
11:56 am 11:56 Mostly Cloudy 73 22.8 61 16.1 66 66 SW 15 24 29.98 1015 10 16 0.00 0.00
12:56 pm 12:56 Cloudy with Light Rain 64 17.8 64 17.8 100 100 W 13 20 30.01 1016 6 10 0.00 0.00
1:56 pm 13:56 Cloudy with Light Rain 65 18.3 65 18.3 100 100 WSW 12 19 29.99 1016 8 13 0.00 0.00
2:56 pm 14:56 Cloudy 66 19 N/A N/A SW 12 19 29.97 1015 10 16 0.00 0.00
3:56 pm 15:56 Cloudy with Light Rain 66 19 N/A N/A W 10 17 29.97 1015 8 13 0.00 0.00
4:20 pm 16:20 Cloudy with Light Rain 61 16 N/A N/A WNW 21 33 29.99 1015 9 14 0.00 0.00
4:32 pm 16:32 Cloudy with Light Rain 59 15 N/A N/A WNW 16 26 30.00 1016 10 16 0.00 0.00
4:56 pm 16:56 Cloudy N/A N/A N/A NW 15 24 N/A 10 16 0.00 0.00
5:18 pm 17:18 Cloudy N/A N/A N/A WNW 12 19 N/A 10 16 0.00 0.00
5:56 pm 17:56 Mostly Cloudy 57 14 N/A N/A WNW 16 26 30.04 1017 10 16 0.00 0.00
6:24 pm 18:24 Cloudy 57 14 N/A N/A WNW 17 28 30.04 1017 10 16 0.00 0.00
6:36 pm 18:36 Cloudy 57 14 N/A N/A WNW 9 15 30.04 1017 10 16 0.00 0.00
6:56 pm 18:56 Mostly Cloudy 57 14 N/A N/A WNW 10 17 30.06 1018 10 16 0.00 0.00
7:07 pm 19:07 Mostly Cloudy 57 14 N/A N/A WNW 9 15 30.06 1018 10 16 0.00 0.00
7:19 pm 19:19 Cloudy 57 14 N/A N/A WNW 10 17 30.06 1018 10 16 0.00 0.00
7:26 pm 19:26 Mostly Cloudy 57 14 57 14 100 100 WNW 12 19 30.07 1018 10 16 0.00 0.00
7:49 pm 19:49 Cloudy 57 14 57 14 100 100 WNW 14 22 30.08 1018 10 16 0.00 0.00
7:56 pm 19:56 Cloudy 58 14.4 56 13.3 93 93 WNW 14 22 30.08 1019 10 16 0.00 0.00
8:54 pm 20:54 Partly Cloudy 55 13 52 11 88 88 WNW 10 17 30.10 1019 10 16 0.00 0.00
8:56 pm 20:56 Mostly Clear 56 13.3 52 11.1 87 87 WNW 9 15 30.10 1019 10 16 0.00 0.00
9:56 pm 21:56 Clear 55 12.8 53 11.7 93 93 W 3 6 30.12 1020 10 16 0.00 0.00
10:56 pm 22:56 Clear 53 11.7 51 10.6 93 93 WNW 8 13 30.13 1020 10 16 0.00 0.00
11:56 pm 23:56 Clear 49 9.4 49 9.4 100 100 NW 8 13 30.14 1021 10 16 0.00 0.00

Powered by AerisWeather